Location: Makanda
(37.6176°N, 89.2090°W)
Time: 06:02:58
(UTC+00:00)

ADEOS - Pass Details

Date: 23 September 2019
Orbit: 792 x 794 km, 98.8° (Epoch: 22 October)

Event Time Altitude Azimuth Distance (km) Brightness Sun altitude
Rises 09:32:34 0° 14° (NNE) 3,299 7.3 -26.5°
Reaches altitude 10° 09:34:55 10° 16° (NNE) 2,366 6.5 -26.0°
Maximum altitude 09:40:08 80° 103° (ESE) 809 3.6 -25.1°
Enters shadow 09:41:50 44° 183° (S) 1,084 4.0 -24.8°
